Epoch 2011 Feb. 8.0 TT = JDT 2455600.5 T 2011 Feb. 7.08094 TT MPC q 2.9414439 (2000.0) P Q z +0.0003401 Peri. 211.52584 +0.00060764 +0.24113756 +/-0.0000003 Node 277.21360 +0.99183955 -0.12387414 e 0.9989995 Incl. 101.97629 -0.12749092 -0.96255279 From 1962 observations 2010 Jan. 19-2012 Oct. 3, mean residual 0".5.
m1 = 8.0 + 5 log d + 10.0 log r(t + 60)